Regional Weather Roundup
Issued by NWS

Home | Current Version | Previous Version | Text Only | Print | Product List | Glossary Off
Versions: 1 2 3 4 5 6 7 8 9 10 11 12 13 14 15 16 17 18 19 20 21 22 23 24 25 26 27 28 29 30 31 32 33 34 35 36 37 38 39 40 41 42 43 44 45 46 47 48 49 50

000
ASUS43 KDTX 252310
RWRMI
MICHIGAN HOURLY REGIONAL WEATHER ROUNDUP
NATIONAL WEATHER SERVICE DETROIT/PONTIAC MI
ISSUED BY NATIONAL WEATHER SERVICE GRAND RAPIDS MI
600 PM EST SAT FEB 25 2017

NOTE: "FAIR" INDICATES FEW OR NO CLOUDS BELOW 12,000 FEET WITH NO
SIGNIFICANT WEATHER AND/OR OBSTRUCTION TO VISIBILITY.

MIZ047>049-052>055-059>063-066>070-074>076-081>083-260000-
SOUTHEAST LOWER MICHIGAN

CITY           SKY/WX    TMP DP  RH WIND       PRES   REMARKS
ADRIAN         CLOUDY    26  16  65 W16       29.87R WCI  14
ALMA           CLOUDY    26  15  64 W17       29.82R WCI  12
ANN ARBOR      CLOUDY    26  17  68 W21G26    29.83R WCI  12
BAD AXE        FLURRIES  27  19  70 W20G29    29.72R WCI  14
DETROIT CITY   CLOUDY    29  16  58 W17G32    29.81R WCI  17
DETROIT        FLURRIES  28  17  63 W15G26    29.83R WCI  16
FLINT          LGT SNOW  25  19  78 W20G28    29.81R WCI  11
GROSSE ILE     CLOUDY    29  19  66 W17G24    29.82R WCI  17
HILLSDALE      LGT SNOW  23  19  86 W14G20    29.84R WCI  11
HOWELL         FLURRIES  25  16  68 W18G29    29.82R WCI  12

CITY           SKY/WX    TMP DP  RH WIND       PRES   REMARKS
JACKSON        CLOUDY    25  16  68 W14G29    29.84R WCI  13
LANSING        LGT SNOW  24  12  60 W21G31    29.85R WCI   9
MASON          LGT SNOW  24  20  82 W17G25    29.84R WCI  11
MONROE         FLURRIES  29  21  73 W18G24    29.84R WCI  16
MT. CLEMENS    FLURRIES  29  16  59 W25G33    29.77R WCI  15
PONTIAC        FLURRIES  25  14  63 W24G33    29.78R WCI   9
PORT HOPE        N/A     28  16  60 W17G30    29.69R WCI  16
PORT HURON     FLURRIES  28  19  69 W12G23    29.77R WCI  18
TRI CITIES     CLOUDY    26  18  71 W23       29.79R WCI  11
YPSILANTI      FLURRIES  29  18  63 W22       29.83R WCI  15
$$
MIZ043>046-050>051-056>058-064>065-071>073-077>080-260000-
SOUTHWEST LOWER MICHIGAN

CITY           SKY/WX    TMP DP  RH WIND       PRES   REMARKS
BATTLE CREEK   FLURRIES  23  16  74 W18G29    29.88R WCI   9
BENTON HARBOR  CLOUDY    25  15  66 W17       29.93R WCI  12
BIG RAPIDS     LGT SNOW  23  18  82 W13       29.79R WCI  11
COLDWATER      LGT SNOW  25  20  79 W15       29.88R WCI  13
HOLLAND        LGT SNOW  23  15  71 W15G24    29.90R WCI  10
GRAND RAPIDS   LGT SNOW  22  16  78 W15       29.86R WCI   9
KALAMAZOO      LGT SNOW  23  14  68 W15G29    29.90R WCI  10
MARSHALL       LGT SNOW  24  19  80 W15G23    29.86R WCI  11
MOUNT PLEASANT CLOUDY    25  18  72 W13G23    29.78R WCI  14
MUSKEGON       LGT SNOW  24  17  74 W14G22    29.89R WCI  12
STURGIS        FLURRIES  25  18  73 W16G24    29.89R WCI  12
$$
MIZ016>042-260000-
NORTHERN LOWER MICHIGAN

CITY           SKY/WX    TMP DP  RH WIND       PRES   REMARKS
ALPENA         MOCLDY    25  17  72 W10G26    29.68R WCI  15
BEAVER ISLAND  PTCLDY    22  13  67 W13G24    29.73R WCI  10
BELLAIRE       CLOUDY    27  15  62 NW10      29.74R WCI  17
CADILLAC       LGT SNOW  22  18  83 W12       29.73R WCI  11
CHARLEVOIX     LGT SNOW  25  18  76 NW15G21   29.76R WCI  12
GAYLORD        FLURRIES  22  15  75 NW13G21   29.67R WCI  10
HOUGHTON LAKE  LGT SNOW  23  17  78 W15G21    29.72R WCI  10
MANISTEE       FLURRIES  25  17  72 W21       29.81R WCI  11
OSCODA         MOCLDY    28  13  54 W16G22    29.69R WCI  16
PELLSTON       CLOUDY    23  12  62 W22G31    29.70R HAZE    WCI   8
TRAVERSE CITY  CLOUDY    27  16  63 W14       29.75R WCI  16
LUDINGTON      FLURRIES  25  17  72 W9G18     29.84R WCI  15
$$
MIZ007>008-015-260000-
EASTERN UPPER MICHIGAN

CITY           SKY/WX    TMP DP  RH WIND       PRES   REMARKS
KINROSS        LGT SNOW  21  18  86 W21       29.63R FOG     WCI   6
MACKINAC ISLAN LGT SNOW  22  17  81 W20G32    29.67R WCI   7
NEWBERRY       CLOUDY    20  12  72 W13G23    29.67R WCI   7
S. S. MARIE    LGT SNOW  23  17  78 NW14      29.60R VSB 3/4 WCI  11
$$
MIZ004>006-011>014-085-260000-
CENTRAL UPPER MICHIGAN

CITY           SKY/WX    TMP DP  RH WIND       PRES   REMARKS
MANISTIQUE     PTCLDY    20  11  66 W8G20     29.73R WCI  11
ESCANABA       CLOUDY    23  12  62 NW12G21   29.78R WCI  12
MENOMINEE      CLOUDY    24  13  62 NW9G18    29.82R WCI  14
SAWYER-GWINN   LGT SNOW  19  12  73 W18G30    29.72R WCI   4
$$
MIZ001>003-009>011-084-260000-
WESTERN UPPER MICHIGAN

CITY           SKY/WX    TMP DP  RH WIND       PRES   REMARKS
IRON MOUNTAIN  MOCLDY    21   8  57 W8        29.75R WCI  11
HOUGHTON       MOCLDY    22  10  60 W20       29.69R WCI   7
COPPER HARBOR    N/A     24  12  60 N16G31    29.69R WCI  11
IRONWOOD       CLEAR     23   9  55 W12       29.77S WCI  12
$$

ABBREVIATIONS USED IN REMARKS
   TC - TEMPERATURE IN CELSIUS
  WCI - WIND CHILL INDEX
   HX - HEAT INDEX
  VSB - VISIBILITY





USA.gov is the U.S. government's official web portal to all federal, state and local government web resources and services.